Location: Table Mountain
(47.2500°N, 120.5778°W)
Time: 13:44:06
(UTC-08:00)

Tiangong 2 - Pass Details

Date: 14 October 2017
Orbit: 386 x 389 km, 42.8° (Epoch: 17 December)

Event Time Altitude Azimuth Distance (km) Brightness Sun altitude
Exits shadow 05:03:16 23° 127° (SE) 882 3.2 -23.8°
Drops below altitude 10° 05:04:54 10° 106° (ESE) 1,419 4.7 -23.5°
Sets 05:07:05 0° 96° (E) 2,276 6.2 -23.2°
